TimeMDT,TemperatureF,Dew PointF,Humidity,Sea Level PressureIn,VisibilityMPH,Wind Direction,Wind SpeedMPH,Gust SpeedMPH,PrecipitationIn,Events,Conditions,WindDirDegrees,DateUTC
12:53 AM,60.1,28.9,31,30.11,10.0,South,15.0,-,N/A,,Clear,190,2012-10-01 06:53:00
1:53 AM,57.9,30.9,36,30.11,10.0,South,13.8,-,N/A,,Clear,190,2012-10-01 07:53:00
2:53 AM,60.1,28.9,31,30.12,10.0,South,13.8,-,N/A,,Clear,190,2012-10-01 08:53:00
3:53 AM,60.1,27.0,28,30.12,10.0,South,13.8,-,N/A,,Clear,190,2012-10-01 09:53:00
4:53 AM,55.9,27.0,33,30.14,10.0,South,9.2,-,N/A,,Clear,180,2012-10-01 10:53:00
6:53 AM,53.1,27.0,37,30.17,9.0,South,10.4,-,N/A,,Clear,190,2012-10-01 12:53:00
7:53 AM,55.9,26.1,32,30.19,10.0,SSW,8.1,-,N/A,,Clear,200,2012-10-01 13:53:00
8:53 AM,61.0,28.9,30,30.20,10.0,South,8.1,-,N/A,,Clear,190,2012-10-01 14:53:00
9:53 AM,66.0,28.0,24,30.19,10.0,SW,9.2,-,N/A,,Clear,220,2012-10-01 15:53:00
10:53 AM,68.0,30.9,25,30.19,10.0,West,5.8,-,N/A,,Clear,280,2012-10-01 16:53:00
11:53 AM,71.1,30.9,23,30.18,10.0,West,10.4,-,N/A,,Clear,280,2012-10-01 17:53:00
12:53 PM,75.0,28.9,18,30.14,10.0,WSW,9.2,-,N/A,,Clear,240,2012-10-01 18:53:00
1:53 PM,77.0,30.0,18,30.12,10.0,West,9.2,-,N/A,,Clear,280,2012-10-01 19:53:00
2:53 PM,77.0,32.0,19,30.09,10.0,West,11.5,-,N/A,,Clear,280,2012-10-01 20:53:00
3:53 PM,79.0,30.9,17,30.06,10.0,West,12.7,-,N/A,,Clear,270,2012-10-01 21:53:00
4:53 PM,77.0,33.1,20,30.06,8.0,WNW,9.2,-,N/A,,Clear,290,2012-10-01 22:53:00
5:53 PM,75.9,32.0,20,30.04,8.0,West,8.1,-,N/A,,Clear,280,2012-10-01 23:53:00
6:53 PM,71.1,32.0,24,30.04,9.0,WSW,4.6,-,N/A,,Clear,240,2012-10-02 00:53:00
7:53 PM,54.0,36.0,51,30.06,10.0,South,5.8,-,N/A,,Clear,180,2012-10-02 01:53:00
9:53 PM,60.1,30.0,32,30.02,10.0,SSW,10.4,-,N/A,,Clear,200,2012-10-02 03:53:00
10:53 PM,61.0,28.9,30,30.00,10.0,South,13.8,-,N/A,,Clear,190,2012-10-02 04:53:00
11:53 PM,61.0,27.0,27,29.98,10.0,South,12.7,-,N/A,,Clear,180,2012-10-02 05:53:00